Home > Weather > Washington DC > Past weeks

Flag for U.S.A. Weather for the Past 2 Weeks in Washington DC, District of Columbia, U.S.A.

Now
26 °F

Passing clouds.


Feels Like: 14 °F
Forecast: 21 / 29 °F
Wind: 14 mph from Northwest

Location: Reagan National Airport

Current Time: Feb 10, 2016 at 11:36:18 PM

Latest Report: Feb 10, 2016 at 10:52 PM


Visibility: 10 mi

Pressure: 29.96 "Hg

Humidity: 48%

Dew point: 9 °F

Location of Washington DCLocation

Historic Weather in Washington DC — Graph

°F

Washington DC Temperature Yesterday

Maximum temperature yesterday: 39 °F (at 2:59 PM)
Minimum temperature yesterday: 32 °F (at 11:52 PM)
Average temperature yesterday: 36 °F

High & Low Weather Summary for the Past Weeks

 TemperatureHumidityPressure
High60 °F (Feb 1, 12:52 PM)100% (Feb 3, 4:52 PM)30.48 "Hg (Feb 3, 4:52 PM)
Low25 °F (Jan 28, 3:52 AM)37% (Feb 7, 2:52 PM)29.56 "Hg (Feb 9, 1:52 PM)
Average40 °F65%29.99 "Hg
* Reported Jan 26 10:52 PM — Feb 10 9:52 PM, Washington DC, Weather by CustomWeather, © 2016

Note: Actual official high and low records may vary slightly from our data, if they occured in-between our weather recording intervals... More about our weather records

Advertising

Washington DC Weather History for the Previous 24 Hours

 ConditionsComfort  
Time TempWeatherWind HumidityBarometerVisibility
9:52 PM
Wed, Feb 10
27 °FOvercast.15 mph49%29.94 "Hg10 mi
8:52 PM27 °FMostly cloudy.17 mph49%29.93 "Hg10 mi
7:52 PM28 °FOvercast.13 mph49%29.92 "Hg10 mi
6:52 PM29 °FMostly cloudy.15 mph45%29.90 "Hg10 mi
5:52 PM32 °FMostly cloudy.14 mph43%29.87 "Hg10 mi
4:52 PM35 °FPartly sunny.15 mph42%29.82 "Hg10 mi
3:52 PM36 °FPartly sunny.13 mph42%29.80 "Hg10 mi
2:52 PM38 °FPartly sunny.9 mph41%29.79 "Hg10 mi
1:52 PM37 °FScattered clouds.10 mph42%29.78 "Hg10 mi
12:52 PM39 °FScattered clouds.10 mph43%29.79 "Hg10 mi
11:52 AM37 °FScattered clouds.16 mph42%29.81 "Hg10 mi
10:52 AM35 °FBroken clouds.17 mph44%29.83 "Hg10 mi
9:52 AM33 °FPartly sunny.17 mph48%29.82 "Hg10 mi
8:52 AM33 °FPartly sunny.13 mph48%29.81 "Hg10 mi
7:52 AM32 °FPartly sunny.15 mph52%29.79 "Hg10 mi
6:52 AM32 °FPassing clouds.20 mph52%29.77 "Hg10 mi
5:52 AM32 °FOvercast.13 mph56%29.75 "Hg10 mi
4:52 AM30 °FMostly cloudy.9 mph69%29.73 "Hg10 mi
3:52 AM29 °FOvercast.7 mph79%29.72 "Hg10 mi
2:52 AM29 °FLight snow. Mostly cloudy.7 mph82%29.72 "Hg4 mi
1:52 AM31 °FOvercast.14 mph64%29.72 "Hg10 mi
12:52 AM32 °FOvercast.10 mph59%29.71 "Hg10 mi
11:52 PM
Tue, Feb 9
32 °FOvercast.10 mph59%29.70 "Hg10 mi
Weather by CustomWeather, © 2016

See weather overviewHow to use our weather pages